Location: �perlecques
(50.8057°N, 2.1521°E)
Time: 11:51:26
(UTC+00:00)

ITAMSAT 1 - Pass Details

Date: 02 April 2023
Orbit: 782 x 797 km, 98.8° (Epoch: 07 June)

Event Time Altitude Azimuth Distance (km) Brightness Sun altitude
Rises 19:45:24 0° 178° (S) 3,278 10.6 -12.9°
Reaches altitude 10° 19:47:46 10° 183° (S) 2,356 9.9 -13.2°
Maximum altitude 19:52:50 52° 260° (W) 986 8.5 -14.0°
Drops below altitude 10° 19:57:58 10° 336° (NNW) 2,379 10.9 -14.7°
Sets 20:00:23 0° 342° (NNW) 3,315 11.6 -15.0°
